When you browse on this site, cookies collect data to enhance your experience and personalize the content and advertising you see.
Visit our Privacy Policy to learn more. By continuing to use the site, you agree to this use of cookies and data.
  • Em Portugal
  • Lista de países
  • Para 7 dias
  • Temperatura da água
  • Mapas de satélite
  • Mapa do tempo
  • Widgets de tempo
  • user-avatar
    Iniciar Sessão

    Previsão horária em Ravda

    Hoje, 16 Dezembro, Domingo

    Tempo Temperatura Precipitação Vento Pressão Humidade
    00:00 +10°C° 0.2 mm 3 m/s 762 mmHg 95%
    01:00 +10°C° 0.2 mm 3 m/s 762 mmHg 95%
    02:00 +10°C° 0 mm 3 m/s 762 mmHg 94%
    03:00 +10°C° 0.3 mm 3 m/s 762 mmHg 94%
    04:00 +10°C° 0.3 mm 3 m/s 761 mmHg 93%
    05:00 +10°C° 0.3 mm 3 m/s 761 mmHg 93%
    06:00 +10°C° 0.4 mm 3 m/s 761 mmHg 93%
    07:00 +10°C° 0.4 mm 3 m/s 761 mmHg 94%
    08:00 +10°C° 0 mm 3 m/s 761 mmHg 93%
    09:00 +11°C° 0.2 mm 3 m/s 761 mmHg 91%
    10:00 +11°C° 0.2 mm 4 m/s 761 mmHg 89%
    11:00 +12°C° 0.2 mm 4 m/s 761 mmHg 87%
    12:00 +12°C° 0 mm 4 m/s 761 mmHg 85%
    13:00 +13°C° 0 mm 4 m/s 760 mmHg 82%
    14:00 +13°C° 0 mm 5 m/s 760 mmHg 80%
    15:00 +13°C° 0 mm 4 m/s 760 mmHg 85%
    16:00 +12°C° 0 mm 4 m/s 760 mmHg 89%
    17:00 +11°C° 0 mm 4 m/s 760 mmHg 93%
    18:00 +11°C° 0 mm 4 m/s 760 mmHg 94%
    19:00 +11°C° 0 mm 4 m/s 761 mmHg 94%
    20:00 +10°C° 0 mm 4 m/s 761 mmHg 95%
    21:00 +10°C° 0 mm 4 m/s 761 mmHg 95%
    22:00 +10°C° 0 mm 3 m/s 761 mmHg 95%
    23:00 +10°C° 0 mm 3 m/s 761 mmHg 95%

    Amanhã, 17 Dezembro, Segunda-feira

    Tempo Temperatura Precipitação Vento Pressão Humidade
    00:00 +10°C° 0.1 mm 3 m/s 761 mmHg 94%
    01:00 +8°C° 0.1 mm 4 m/s 762 mmHg 93%
    02:00 +8°C° 0.1 mm 4 m/s 762 mmHg 92%
    03:00 +8°C° 0.1 mm 4 m/s 762 mmHg 92%
    04:00 +7°C° 0.1 mm 4 m/s 761 mmHg 91%
    05:00 +7°C° 0.1 mm 4 m/s 761 mmHg 90%
    06:00 +7°C° 0.2 mm 4 m/s 761 mmHg 90%
    07:00 +6°C° 0.2 mm 4 m/s 762 mmHg 90%
    08:00 +6°C° 0.2 mm 4 m/s 762 mmHg 90%
    09:00 +6°C° 0.2 mm 4 m/s 762 mmHg 90%
    10:00 +6°C° 0.2 mm 4 m/s 762 mmHg 89%
    11:00 +6°C° 0.2 mm 4 m/s 762 mmHg 89%
    12:00 +6°C° 0.3 mm 4 m/s 762 mmHg 89%
    13:00 +6°C° 0.3 mm 4 m/s 762 mmHg 90%
    14:00 +7°C° 0.3 mm 3 m/s 761 mmHg 90%
    15:00 +6°C° 0.1 mm 4 m/s 761 mmHg 90%
    16:00 +6°C° 0.1 mm 4 m/s 762 mmHg 91%
    17:00 +6°C° 0.1 mm 4 m/s 762 mmHg 91%
    18:00 +6°C° 0.2 mm 4 m/s 762 mmHg 92%
    19:00 +6°C° 0.2 mm 4 m/s 762 mmHg 93%
    20:00 +7°C° 0.2 mm 4 m/s 762 mmHg 93%
    21:00 +7°C° 0.3 mm 5 m/s 762 mmHg 94%
    22:00 +7°C° 0.3 mm 5 m/s 762 mmHg 95%
    23:00 +7°C° 0.3 mm 5 m/s 762 mmHg 95%

    Depois de amanhã, 18 Dezembro, Terça-feira

    Tempo Temperatura Precipitação Vento Pressão Humidade
    00:00 +7°C° 0.4 mm 6 m/s 762 mmHg 95%
    01:00 +7°C° 0.4 mm 6 m/s 762 mmHg 95%
    02:00 +7°C° 0.4 mm 6 m/s 762 mmHg 95%
    03:00 +6°C° 0.5 mm 7 m/s 762 mmHg 94%
    04:00 +6°C° 0.5 mm 7 m/s 762 mmHg 94%
    05:00 +6°C° 0.5 mm 7 m/s 762 mmHg 93%
    06:00 +6°C° 0.7 mm 8 m/s 763 mmHg 93%
    07:00 +6°C° 0.7 mm 8 m/s 763 mmHg 92%
    08:00 +6°C° 0.7 mm 8 m/s 763 mmHg 91%
    09:00 +5°C° 0.4 mm 9 m/s 764 mmHg 90%
    10:00 +5°C° 0.4 mm 9 m/s 764 mmHg 89%
    11:00 +5°C° 0.4 mm 9 m/s 765 mmHg 88%
    12:00 +3°C° 0.3 mm 9 m/s 765 mmHg 87%
    13:00 +3°C° 0.3 mm 9 m/s 765 mmHg 86%
    14:00 +2°C° 0.3 mm 9 m/s 765 mmHg 86%
    15:00 +2°C° 0.2 mm 10 m/s 765 mmHg 85%
    16:00 +1°C° 0.2 mm 10 m/s 765 mmHg 85%
    17:00 +1°C° 0.2 mm 10 m/s 765 mmHg 85%
    18:00 +1°C° 0.2 mm 10 m/s 766 mmHg 85%
    19:00 0°C° 0.2 mm 9 m/s 766 mmHg 84%
    20:00 0°C° 0.2 mm 9 m/s 767 mmHg 84%
    21:00 -1°C° 0.1 mm 9 m/s 767 mmHg 83%
    22:00 -1°C° 0.1 mm 9 m/s 767 mmHg 83%
    23:00 -3°C° 0.1 mm 9 m/s 767 mmHg 83%

    19 Dezembro, Quarta-feira

    Tempo Temperatura Precipitação Vento Pressão Humidade
    00:00 -3°C° 0.1 mm 9 m/s 768 mmHg 82%
    01:00 -3°C° 0.1 mm 9 m/s 768 mmHg 82%
    02:00 -4°C° 0.1 mm 9 m/s 768 mmHg 82%
    03:00 -4°C° 0 mm 8 m/s 768 mmHg 81%
    04:00 -4°C° 0 mm 8 m/s 768 mmHg 80%
    05:00 -3°C° 0 mm 7 m/s 768 mmHg 79%
    06:00 -3°C° 0 mm 7 m/s 768 mmHg 78%
    07:00 -3°C° 0 mm 7 m/s 769 mmHg 78%
    08:00 -3°C° 0 mm 7 m/s 769 mmHg 78%
    09:00 -2°C° 0 mm 7 m/s 769 mmHg 76%
    10:00 -2°C° 0 mm 7 m/s 769 mmHg 74%
    11:00 -1°C° 0 mm 7 m/s 769 mmHg 72%
    12:00 +1°C° 0 mm 6 m/s 769 mmHg 72%
    13:00 +1°C° 0 mm 6 m/s 769 mmHg 72%
    14:00 +2°C° 0 mm 6 m/s 769 mmHg 72%
    15:00 +1°C° 0 mm 6 m/s 769 mmHg 76%
    16:00 0°C° 0 mm 5 m/s 769 mmHg 80%
    17:00 -1°C° 0 mm 4 m/s 769 mmHg 84%
    18:00 -1°C° 0 mm 4 m/s 770 mmHg 85%
    19:00 -1°C° 0 mm 4 m/s 770 mmHg 86%
    20:00 -1°C° 0 mm 4 m/s 770 mmHg 87%
    21:00 -2°C° 0 mm 4 m/s 770 mmHg 87%
    22:00 -2°C° 0 mm 4 m/s 770 mmHg 87%
    23:00 -2°C° 0 mm 4 m/s 770 mmHg 87%

    20 Dezembro, Quinta-feira

    Tempo Temperatura Precipitação Vento Pressão Humidade
    00:00 -1°C° 0 mm 3 m/s 770 mmHg 86%
    01:00 -1°C° 0 mm 3 m/s 771 mmHg 86%
    02:00 -1°C° 0 mm 3 m/s 771 mmHg 85%
    03:00 -1°C° 0 mm 3 m/s 771 mmHg 85%
    04:00 -1°C° 0 mm 3 m/s 771 mmHg 84%
    05:00 -1°C° 0 mm 2 m/s 771 mmHg 84%
    06:00 -1°C° 0 mm 2 m/s 771 mmHg 83%
    07:00 -1°C° 0 mm 2 m/s 771 mmHg 82%
    08:00 -1°C° 0 mm 2 m/s 772 mmHg 82%
    09:00 +1°C° 0 mm 2 m/s 772 mmHg 76%
    10:00 +2°C° 0 mm 2 m/s 772 mmHg 71%
    11:00 +4°C° 0 mm 1 m/s 772 mmHg 65%
    12:00 +5°C° 0 mm 1 m/s 771 mmHg 65%
    13:00 +5°C° 0 mm 1 m/s 771 mmHg 64%
    14:00 +6°C° 0 mm 1 m/s 771 mmHg 63%
    15:00 +5°C° 0 mm 1 m/s 771 mmHg 69%
    16:00 +4°C° 0 mm 1 m/s 771 mmHg 74%
    17:00 +2°C° 0 mm 2 m/s 771 mmHg 79%
    18:00 +1°C° 0 mm 2 m/s 771 mmHg 81%
    19:00 +1°C° 0 mm 2 m/s 771 mmHg 83%
    20:00 +1°C° 0 mm 2 m/s 771 mmHg 85%
    21:00 +1°C° 0 mm 2 m/s 771 mmHg 86%
    22:00 +2°C° 0 mm 1 m/s 771 mmHg 88%
    23:00 +2°C° 0 mm 1 m/s 771 mmHg 89%

    21 Dezembro, Sexta-feira

    Tempo Temperatura Precipitação Vento Pressão Humidade
    00:00 +2°C° 0 mm 1 m/s 770 mmHg 90%
    01:00 +2°C° 0 mm 1 m/s 770 mmHg 90%
    02:00 +2°C° 0 mm 1 m/s 770 mmHg 91%
    03:00 +2°C° 0 mm 1 m/s 770 mmHg 91%
    04:00 +2°C° 0 mm 1 m/s 769 mmHg 91%
    05:00 +1°C° 0 mm 2 m/s 769 mmHg 90%
    06:00 +1°C° 0 mm 2 m/s 769 mmHg 90%
    07:00 +1°C° 0 mm 2 m/s 769 mmHg 90%
    08:00 +1°C° 0 mm 2 m/s 769 mmHg 89%
    09:00 +3°C° 0 mm 2 m/s 769 mmHg 82%
    10:00 +4°C° 0 mm 2 m/s 769 mmHg 76%
    11:00 +6°C° 0 mm 2 m/s 769 mmHg 69%
    12:00 +6°C° 0 mm 2 m/s 768 mmHg 69%
    13:00 +6°C° 0 mm 2 m/s 768 mmHg 68%
    14:00 +7°C° 0 mm 2 m/s 767 mmHg 68%
    15:00 +6°C° 0 mm 2 m/s 768 mmHg 74%
    16:00 +5°C° 0 mm 2 m/s 768 mmHg 79%
    17:00 +4°C° 0 mm 2 m/s 768 mmHg 85%
    18:00 +2°C° 0.1 mm 3 m/s 768 mmHg 87%
    19:00 +2°C° 0.1 mm 3 m/s 768 mmHg 88%
    20:00 +2°C° 0.1 mm 3 m/s 768 mmHg 90%
    21:00 +1°C° 0 mm 3 m/s 768 mmHg 90%
    22:00 +1°C° 0 mm 3 m/s 768 mmHg 91%
    23:00 +1°C° 0 mm 3 m/s 768 mmHg 92%
    Mostrar mais